Weather History for Michigan City, IN

Change the Weather History Date:

Sunday, October 6, 2013

  Actual Average (KVPZ) Record (KVPZ)
Temperature  
Mean Temperature 54 °F 56 °F  
Max Temperature 66 °F 67 °F 88 °F (2007)
Min Temperature 42 °F 45 °F 32 °F (2003)
Degree Days  
Heating Degree Days 11 10  
Month to date heating degree days 57  
Since 1 July heating degree days 187  
Cooling Degree Days 0 1  
Month to date cooling degree days 6  
Year to date cooling degree days 708  
Growing Degree Days 4 (Base 50)    
Moisture  
Dew Point 48 °F    
Average Humidity 78    
Maximum Humidity 100    
Minimum Humidity 48    
Precipitation  
Precipitation 0.00 in 0.10 in 0.25 in (2013)
Month to date precipitation 0.59  
Year to date precipitation 29.34  
Sea Level Pressure  
Sea Level Pressure 29.77 in    
Wind  
Wind Speed 6 mph (SW)    
Max Wind Speed 14 mph    
Max Gust Speed 21 mph    
Visibility 9 miles    
Events Rain    
T = Trace of Precipitation, MM = Missing Value Source: NWS Daily Summary

Daily Weather History Graph

Daily Weather History Graph

Search for Another Location

Airport:

Trip Planner

Search our weather history database for the weather conditions in past years. The results will help you decide how hot, cold, wet, or windy it might be!

Date:

Astronomy

Oct. 06, 2013 Rise Set
Actual Time 6:49 AM CDT 6:20 PM CDT
Civil Twilight 6:21 AM CDT 6:47 PM CDT
Nautical Twilight 5:49 AM CDT 7:19 PM CDT
Astronomical Twilight 5:17 AM CDT 7:52 PM CDT
Moon 8:35 AM CDT (10/6) 7:17 PM CDT (10/6)
Length of Visible Light 12h 25m
Length of Day
11h 30m
Waxing Crescent, 3% of the Moon is Illuminated
Oct 6
Waxing Crescent
Oct 11
First Quarter
Oct 18
Full
Oct 26
Last Quarter
Nov 3
New

Hourly Weather History & Observations

Time (CDT) Temp. Windchill Dew Point Humidity Pressure Visibility Wind Dir Wind Speed Gust Speed Precip Events Conditions
12:15 AM 66.2 °F - 64.4 °F 94% 29.78 in 10.0 mi South 5.8 mph - N/A   Mostly Cloudy
12:35 AM 66.2 °F - 64.4 °F 94% 29.79 in 10.0 mi South 5.8 mph - N/A   Overcast
12:55 AM 64.4 °F - 64.4 °F 100% 29.79 in 5.0 mi South 8.1 mph - N/A   Overcast
1:15 AM 64.4 °F - 64.4 °F 100% 29.79 in 5.0 mi SSW 6.9 mph - N/A   Overcast
1:35 AM 64.4 °F - 62.6 °F 94% 29.79 in 7.0 mi South 5.8 mph - N/A   Overcast
1:55 AM 64.4 °F - 62.6 °F 94% 29.78 in 7.0 mi South 4.6 mph - N/A   Overcast
2:15 AM 66.2 °F - 62.6 °F 88% 29.79 in 7.0 mi South 5.8 mph - N/A   Overcast
2:35 AM 66.2 °F - 62.6 °F 88% 29.77 in 10.0 mi South 4.6 mph - N/A   Overcast
2:55 AM 66.2 °F - 62.6 °F 88% 29.76 in 10.0 mi South 3.5 mph - N/A   Overcast
3:15 AM 64.4 °F - 62.6 °F 94% 29.75 in 10.0 mi South 6.9 mph - N/A   Overcast
3:35 AM 64.4 °F - 62.6 °F 94% 29.75 in 5.0 mi South 5.8 mph - N/A   Light Drizzle
3:55 AM 64.4 °F - 62.6 °F 94% 29.77 in 2.5 mi WSW 6.9 mph - N/A Rain Rain
4:15 AM 59.0 °F - 57.2 °F 94% 29.78 in 5.0 mi WNW 9.2 mph 16.1 mph N/A Rain Heavy Rain
4:35 AM 59.0 °F - 55.4 °F 88% 29.79 in 10.0 mi WNW 6.9 mph - N/A   Drizzle
4:55 AM 59.0 °F - 55.4 °F 88% 29.79 in 7.0 mi West 4.6 mph - N/A Rain Light Rain
5:15 AM 57.2 °F - 55.4 °F 94% 29.80 in 5.0 mi West 6.9 mph - N/A Rain Light Rain
5:35 AM 55.4 °F - 55.4 °F 100% 29.80 in 7.0 mi WSW 5.8 mph - N/A   Drizzle
5:55 AM 55.4 °F - 53.6 °F 94% 29.79 in 5.0 mi West 4.6 mph - N/A   Drizzle
6:15 AM 55.4 °F - 53.6 °F 94% 29.79 in 7.0 mi West 6.9 mph - N/A   Drizzle
6:35 AM 55.4 °F - 53.6 °F 94% 29.79 in 5.0 mi WSW 3.5 mph - N/A   Light Drizzle
6:55 AM 55.4 °F - 53.6 °F 94% 29.77 in 10.0 mi West 4.6 mph - N/A Rain Light Rain
7:15 AM 53.6 °F - 51.8 °F 94% 29.77 in 10.0 mi West 3.5 mph - N/A Rain Light Rain
7:35 AM 53.6 °F - 51.8 °F 94% 29.78 in 7.0 mi WSW 3.5 mph - N/A Rain Light Rain
7:55 AM 53.6 °F - 51.8 °F 94% 29.78 in 5.0 mi West 4.6 mph - N/A Rain Rain
8:15 AM 53.6 °F - 51.8 °F 94% 29.78 in 3.0 mi Calm Calm - N/A Rain Rain
8:35 AM 53.6 °F - 51.8 °F 94% 29.78 in 5.0 mi WSW 6.9 mph - N/A Rain Rain
8:55 AM 51.8 °F - 50.0 °F 94% 29.78 in 7.0 mi West 6.9 mph - N/A Rain Rain
9:15 AM 51.8 °F - 50.0 °F 94% 29.78 in 5.0 mi SW 3.5 mph - N/A Rain Rain
9:35 AM 51.8 °F - 50.0 °F 94% 29.78 in 10.0 mi Calm Calm - N/A   Drizzle
9:55 AM 51.8 °F - 50.0 °F 94% 29.78 in 10.0 mi SSW 3.5 mph - N/A   Overcast
10:15 AM 51.8 °F - 50.0 °F 94% 29.78 in 10.0 mi Calm Calm - N/A   Overcast
10:35 AM 53.6 °F - 50.0 °F 88% 29.78 in 10.0 mi South 4.6 mph - N/A   Overcast
10:55 AM 53.6 °F - 50.0 °F 88% 29.78 in 10.0 mi SSW 4.6 mph - N/A   Overcast
11:15 AM 53.6 °F - 50.0 °F 88% 29.77 in 10.0 mi SSW 4.6 mph - N/A   Overcast
11:35 AM 55.4 °F - 50.0 °F 82% 29.77 in 10.0 mi SSW 6.9 mph - N/A   Overcast
11:55 AM 55.4 °F - 51.8 °F 88% 29.77 in 10.0 mi SW 5.8 mph - N/A   Overcast
12:15 PM 57.2 °F - 50.0 °F 77% 29.77 in 10.0 mi WSW 8.1 mph - N/A   Overcast
12:35 PM 57.2 °F - 46.4 °F 67% 29.76 in 10.0 mi WSW 5.8 mph - N/A   Mostly Cloudy
12:55 PM 57.2 °F - 46.4 °F 67% 29.74 in 10.0 mi SW 4.6 mph - N/A   Scattered Clouds
1:15 PM 59.0 °F - 46.4 °F 63% 29.74 in 10.0 mi SW 5.8 mph - N/A   Scattered Clouds
1:35 PM 60.8 °F - 46.4 °F 59% 29.72 in 10.0 mi South 5.8 mph - N/A   Scattered Clouds
1:55 PM 62.6 °F - 46.4 °F 55% 29.72 in 10.0 mi SSW 9.2 mph - N/A   Scattered Clouds
2:15 PM 60.8 °F - 44.6 °F 55% 29.71 in 10.0 mi SW 3.5 mph - N/A   Mostly Cloudy
2:35 PM 60.8 °F - 44.6 °F 55% 29.72 in 10.0 mi SW 8.1 mph - N/A   Mostly Cloudy
2:55 PM 60.8 °F - 44.6 °F 55% 29.71 in 10.0 mi West 5.8 mph - N/A   Mostly Cloudy
3:15 PM 60.8 °F - 42.8 °F 52% 29.71 in 10.0 mi West 9.2 mph - N/A   Overcast
3:35 PM 60.8 °F - 41.0 °F 48% 29.71 in 10.0 mi WSW 3.5 mph - N/A   Overcast
3:55 PM 59.0 °F - 42.8 °F 55% 29.71 in 10.0 mi WSW 5.8 mph - N/A   Overcast
4:15 PM 59.0 °F - 42.8 °F 55% 29.71 in 10.0 mi WSW 5.8 mph - N/A   Overcast
4:35 PM 59.0 °F - 42.8 °F 55% 29.72 in 10.0 mi WSW 8.1 mph - N/A   Overcast
4:55 PM 59.0 °F - 41.0 °F 51% 29.72 in 10.0 mi WSW 8.1 mph - N/A   Overcast
5:15 PM 59.0 °F - 41.0 °F 51% 29.72 in 10.0 mi WSW 8.1 mph - N/A   Overcast
5:35 PM 57.2 °F - 41.0 °F 55% 29.73 in 10.0 mi WSW 9.2 mph - N/A   Overcast
5:55 PM 57.2 °F - 39.2 °F 51% 29.73 in 10.0 mi WSW 5.8 mph - N/A   Overcast
6:15 PM 55.4 °F - 39.2 °F 54% 29.74 in 10.0 mi WSW 13.8 mph 18.4 mph N/A   Overcast
6:35 PM 55.4 °F - 39.2 °F 54% 29.75 in 10.0 mi WSW 13.8 mph 20.7 mph N/A   Overcast
6:55 PM 53.6 °F - 39.2 °F 58% 29.75 in 10.0 mi WSW 6.9 mph - N/A   Overcast
7:15 PM 53.6 °F - 39.2 °F 58% 29.77 in 10.0 mi WSW 10.4 mph - N/A   Overcast
7:35 PM 51.8 °F - 37.4 °F 58% 29.77 in 10.0 mi WSW 12.7 mph 17.3 mph N/A   Overcast
7:55 PM 51.8 °F - 37.4 °F 58% 29.78 in 10.0 mi SW 12.7 mph 20.7 mph N/A   Mostly Cloudy
8:15 PM 50.0 °F - 37.4 °F 62% 29.79 in 10.0 mi SW 10.4 mph - N/A   Scattered Clouds
8:35 PM 48.2 °F - 37.4 °F 66% 29.79 in 10.0 mi SW 10.4 mph - N/A   Clear
8:55 PM 46.4 °F 42.9 °F 37.4 °F 71% 29.79 in 10.0 mi SW 6.9 mph - N/A   Clear
9:15 PM 44.6 °F 41.4 °F 37.4 °F 76% 29.79 in 10.0 mi SSW 5.8 mph - N/A   Clear
9:35 PM 44.6 °F 42.2 °F 37.4 °F 76% 29.79 in 10.0 mi SSW 4.6 mph - N/A   Clear
9:55 PM 44.6 °F 40.7 °F 37.4 °F 76% 29.79 in 10.0 mi SSW 6.9 mph - N/A   Clear
10:15 PM 44.6 °F 39.7 °F 37.4 °F 76% 29.79 in 10.0 mi SSW 9.2 mph - N/A   Clear
10:35 PM 44.6 °F 40.2 °F 37.4 °F 76% 29.79 in 10.0 mi SW 8.1 mph - N/A   Clear
10:55 PM 42.8 °F 39.3 °F 37.4 °F 81% 29.79 in 10.0 mi SW 5.8 mph - N/A   Clear
11:15 PM 42.8 °F 40.1 °F 39.2 °F 87% 29.78 in 10.0 mi SSW 4.6 mph - N/A   Clear
11:35 PM 42.8 °F 40.1 °F 37.4 °F 81% 29.79 in 10.0 mi South 4.6 mph - N/A   Clear
11:55 PM 42.8 °F 40.1 °F 39.2 °F 87% 29.78 in 10.0 mi SSW 4.6 mph - N/A   Clear